Previsão horária em Jurki

Hoje, 23 Junho, Quarta-feira

Tempo Temperatura Precipitação Vento Pressão Humidade
00:00 +17°C° 0 mm 2 m/s 749 mmHg 97%
01:00 +16°C° 0 mm 2 m/s 749 mmHg 96%
02:00 +16°C° 0.1 mm 2 m/s 749 mmHg 96%
03:00 +16°C° 0.1 mm 2 m/s 749 mmHg 96%
04:00 +16°C° 0.1 mm 2 m/s 749 mmHg 96%
05:00 +17°C° 0 mm 2 m/s 750 mmHg 93%
06:00 +18°C° 0 mm 2 m/s 750 mmHg 89%
07:00 +19°C° 0 mm 2 m/s 750 mmHg 85%
08:00 +20°C° 0 mm 2 m/s 751 mmHg 81%
09:00 +21°C° 0 mm 2 m/s 751 mmHg 77%
10:00 +23°C° 0 mm 2 m/s 752 mmHg 73%
11:00 +23°C° 0 mm 2 m/s 752 mmHg 72%
12:00 +23°C° 0 mm 2 m/s 752 mmHg 71%
13:00 +24°C° 0 mm 2 m/s 752 mmHg 70%
14:00 +23°C° 0 mm 2 m/s 752 mmHg 71%
15:00 +22°C° 0 mm 3 m/s 752 mmHg 72%
16:00 +22°C° 0 mm 3 m/s 752 mmHg 74%
17:00 +21°C° 0 mm 3 m/s 752 mmHg 76%
18:00 +20°C° 0 mm 3 m/s 752 mmHg 78%
19:00 +19°C° 0 mm 2 m/s 752 mmHg 80%
20:00 +18°C° 0 mm 2 m/s 752 mmHg 80%
21:00 +17°C° 0 mm 2 m/s 752 mmHg 81%
22:00 +16°C° 0 mm 2 m/s 753 mmHg 81%
23:00 +16°C° 0 mm 2 m/s 753 mmHg 81%

Amanhã, 24 Junho, Quinta-feira

Tempo Temperatura Precipitação Vento Pressão Humidade
00:00 +16°C° 0 mm 2 m/s 753 mmHg 81%
01:00 +16°C° 0 mm 2 m/s 752 mmHg 81%
02:00 +15°C° 0 mm 2 m/s 752 mmHg 82%
03:00 +15°C° 0 mm 2 m/s 752 mmHg 82%
04:00 +15°C° 0 mm 2 m/s 752 mmHg 83%
05:00 +16°C° 0 mm 2 m/s 752 mmHg 80%
06:00 +17°C° 0 mm 2 m/s 752 mmHg 77%
07:00 +19°C° 0 mm 2 m/s 752 mmHg 73%
08:00 +20°C° 0 mm 2 m/s 752 mmHg 71%
09:00 +21°C° 0 mm 2 m/s 752 mmHg 68%
10:00 +24°C° 0 mm 2 m/s 752 mmHg 66%
11:00 +24°C° 0.2 mm 3 m/s 751 mmHg 68%
12:00 +24°C° 0.2 mm 3 m/s 751 mmHg 71%
13:00 +24°C° 0.2 mm 3 m/s 751 mmHg 74%
14:00 +24°C° 0.6 mm 3 m/s 750 mmHg 76%
15:00 +24°C° 0.6 mm 3 m/s 750 mmHg 79%
16:00 +24°C° 0.6 mm 3 m/s 749 mmHg 82%
17:00 +22°C° 0.9 mm 3 m/s 749 mmHg 85%
18:00 +21°C° 0.9 mm 3 m/s 748 mmHg 89%
19:00 +19°C° 0.9 mm 4 m/s 748 mmHg 93%
20:00 +18°C° 0.4 mm 3 m/s 748 mmHg 93%
21:00 +17°C° 0.4 mm 2 m/s 748 mmHg 94%
22:00 +17°C° 0.4 mm 2 m/s 748 mmHg 95%
23:00 +16°C° 0 mm 2 m/s 747 mmHg 95%

Depois de amanhã, 25 Junho, Sexta-feira

Tempo Temperatura Precipitação Vento Pressão Humidade
00:00 +16°C° 0 mm 1 m/s 747 mmHg 95%
01:00 +16°C° 0 mm 1 m/s 747 mmHg 95%
02:00 +16°C° 0 mm 1 m/s 747 mmHg 95%
03:00 +16°C° 0 mm 1 m/s 747 mmHg 95%
04:00 +16°C° 0 mm 1 m/s 747 mmHg 95%
05:00 +17°C° 0 mm 2 m/s 747 mmHg 93%
06:00 +17°C° 0 mm 2 m/s 747 mmHg 91%
07:00 +18°C° 0 mm 2 m/s 747 mmHg 89%
08:00 +19°C° 0.1 mm 2 m/s 747 mmHg 85%
09:00 +20°C° 0.1 mm 2 m/s 748 mmHg 80%
10:00 +21°C° 0.1 mm 2 m/s 748 mmHg 76%
11:00 +21°C° 0 mm 2 m/s 748 mmHg 76%
12:00 +21°C° 0 mm 3 m/s 748 mmHg 76%
13:00 +21°C° 0 mm 3 m/s 748 mmHg 76%
14:00 +20°C° 0.1 mm 3 m/s 748 mmHg 79%
15:00 +20°C° 0.1 mm 2 m/s 748 mmHg 81%
16:00 +19°C° 0.1 mm 2 m/s 748 mmHg 84%
17:00 +19°C° 0 mm 2 m/s 748 mmHg 85%
18:00 +18°C° 0 mm 2 m/s 748 mmHg 86%
19:00 +18°C° 0 mm 2 m/s 748 mmHg 87%
20:00 +17°C° 0 mm 2 m/s 748 mmHg 88%
21:00 +17°C° 0 mm 2 m/s 749 mmHg 88%
22:00 +16°C° 0 mm 2 m/s 749 mmHg 89%
23:00 +16°C° 0 mm 2 m/s 749 mmHg 90%

26 Junho, Sábado

Tempo Temperatura Precipitação Vento Pressão Humidade
00:00 +16°C° 0 mm 2 m/s 749 mmHg 90%
01:00 +16°C° 0 mm 3 m/s 749 mmHg 91%
02:00 +14°C° 0 mm 3 m/s 749 mmHg 90%
03:00 +14°C° 0 mm 3 m/s 749 mmHg 90%
04:00 +14°C° 0 mm 3 m/s 749 mmHg 89%
05:00 +16°C° 0 mm 3 m/s 750 mmHg 85%
06:00 +17°C° 0 mm 3 m/s 750 mmHg 80%
07:00 +18°C° 0 mm 4 m/s 750 mmHg 76%
08:00 +19°C° 0 mm 4 m/s 750 mmHg 70%
09:00 +20°C° 0 mm 4 m/s 751 mmHg 63%
10:00 +21°C° 0 mm 4 m/s 751 mmHg 57%
11:00 +22°C° 0 mm 4 m/s 751 mmHg 55%
12:00 +23°C° 0 mm 4 m/s 751 mmHg 54%
13:00 +23°C° 0 mm 4 m/s 751 mmHg 52%
14:00 +24°C° 0 mm 3 m/s 751 mmHg 56%
15:00 +24°C° 0 mm 3 m/s 751 mmHg 59%
16:00 +22°C° 0 mm 3 m/s 751 mmHg 63%
17:00 +21°C° 0.1 mm 3 m/s 751 mmHg 70%
18:00 +20°C° 0.1 mm 2 m/s 751 mmHg 77%
19:00 +18°C° 0.1 mm 2 m/s 751 mmHg 85%
20:00 +17°C° 0 mm 2 m/s 751 mmHg 87%
21:00 +16°C° 0 mm 1 m/s 752 mmHg 89%
22:00 +14°C° 0 mm 1 m/s 752 mmHg 91%
23:00 +14°C° 0 mm 1 m/s 752 mmHg 91%

27 Junho, Domingo

Tempo Temperatura Precipitação Vento Pressão Humidade
00:00 +14°C° 0 mm 1 m/s 752 mmHg 91%
01:00 +14°C° 0 mm 1 m/s 752 mmHg 90%
02:00 +13°C° 0 mm 1 m/s 752 mmHg 91%
03:00 +13°C° 0 mm 1 m/s 752 mmHg 92%
04:00 +13°C° 0 mm 2 m/s 752 mmHg 92%
05:00 +15°C° 0 mm 2 m/s 752 mmHg 86%
06:00 +17°C° 0 mm 2 m/s 752 mmHg 79%
07:00 +18°C° 0 mm 2 m/s 753 mmHg 73%
08:00 +20°C° 0 mm 3 m/s 753 mmHg 67%
09:00 +21°C° 0 mm 3 m/s 753 mmHg 62%
10:00 +22°C° 0 mm 3 m/s 753 mmHg 57%
11:00 +24°C° 0 mm 3 m/s 753 mmHg 56%
12:00 +24°C° 0 mm 2 m/s 753 mmHg 54%
13:00 +25°C° 0 mm 2 m/s 753 mmHg 53%
14:00 +25°C° 0 mm 2 m/s 752 mmHg 53%
15:00 +25°C° 0 mm 1 m/s 752 mmHg 54%
16:00 +25°C° 0 mm 1 m/s 752 mmHg 54%
17:00 +24°C° 0 mm 1 m/s 752 mmHg 61%
18:00 +23°C° 0 mm 1 m/s 752 mmHg 68%
19:00 +22°C° 0 mm 1 m/s 752 mmHg 74%
20:00 +20°C° 0 mm 1 m/s 752 mmHg 78%
21:00 +19°C° 0 mm 1 m/s 752 mmHg 82%
22:00 +16°C° 0 mm 1 m/s 752 mmHg 85%
23:00 +16°C° 0 mm 1 m/s 752 mmHg 86%

28 Junho, Segunda-feira

Tempo Temperatura Precipitação Vento Pressão Humidade
00:00 +16°C° 0 mm 1 m/s 752 mmHg 86%
01:00 +15°C° 0 mm 1 m/s 752 mmHg 87%
02:00 +15°C° 0 mm 1 m/s 752 mmHg 87%
03:00 +15°C° 0 mm 1 m/s 752 mmHg 87%
04:00 +15°C° 0 mm 1 m/s 752 mmHg 87%
05:00 +18°C° 0 mm 1 m/s 752 mmHg 82%
06:00 +19°C° 0 mm 2 m/s 753 mmHg 77%
07:00 +21°C° 0 mm 2 m/s 753 mmHg 71%
08:00 +23°C° 0.1 mm 2 m/s 753 mmHg 67%
09:00 +24°C° 0.1 mm 2 m/s 753 mmHg 63%
10:00 +26°C° 0.1 mm 2 m/s 753 mmHg 58%
11:00 +26°C° 0.2 mm 2 m/s 753 mmHg 57%
12:00 +27°C° 0.2 mm 2 m/s 753 mmHg 55%
13:00 +27°C° 0.2 mm 2 m/s 752 mmHg 54%
14:00 +27°C° 0 mm 2 m/s 752 mmHg 55%
15:00 +27°C° 0 mm 1 m/s 752 mmHg 57%
16:00 +27°C° 0 mm 1 m/s 752 mmHg 58%
17:00 +26°C° 0.1 mm 1 m/s 752 mmHg 63%
18:00 +25°C° 0.1 mm 1 m/s 752 mmHg 68%
19:00 +24°C° 0.1 mm 1 m/s 751 mmHg 73%
20:00 +23°C° 0 mm 1 m/s 751 mmHg 75%
21:00 +21°C° 0 mm 2 m/s 751 mmHg 77%
22:00 +19°C° 0 mm 2 m/s 751 mmHg 79%
23:00 +19°C° 0 mm 2 m/s 751 mmHg 80%
Mostrar mais

Necessitamos do seu Consentimento

A Meteoprog e os seus Fornecedores de Serviços podem armazenar e aceder a dados pessoais como cookies, identificadores do dispositivo ou outras tecnologias semelhantes existentes no seu dispositivo e processar estes dados para personalizar conteúdos e anúncios, assim como funcionalidades nas redes sociais e análise de tráfego.

  • Armazenar e/ou aceder a informações no seu dispositivo

    Os cookies, identificadores do dispositivo ou outras informações podem ser armazenados ou acedidos no seu dispositivo, para os fins acima indicados.

  • Anúncios e conteúdos personalizados, medição de anúncios e conteúdos, dados sobre o público-alvo e desenvolvimento de produtos

    Os anúncios e os conteúdos podem ser personalizados com base num perfil. Podem ser adicionados dados adicionais para uma maior personalização dos anúncios e dos conteúdos. A eficácia dos anúncios e dos conteúdos pode ser medida. Podem ser obtidas informações sobre o público que visualizou os anúncios e os conteúdos. Estes dados podem ser usados para desenvolver ou melhorar sistemas, softwares ou a experiência do utilizador.

Ao clicar em "Eu concordo”, permitirá o uso de cookies, identificadores do dispositivo e web beacons mencionados ou outras tecnologias semelhantes. As configurações do navegador do seu dispositivo podem ser alteradas.

Para certos fins, podem ser invocados interesses legítimos ao invés de consentimento. Pode ler mais informação sobre este assunto na nossa Política de Privacidade e Cookies.